Galena, AK

6:52 AM AKDT on June 29, 2017 (GMT -0800)
Pitka

Weather History for PAGA - October, 2012

Change the Weather History Date:

Sunday, October 28, 2012

  Actual Average Record
Temperature  
Mean Temperature 14 °F -  
Max Temperature 23 °F 17 °F 41 °F (1996)
Min Temperature 8 °F 4 °F -28 °F (1971)
Degree Days  
Heating Degree Days 50    
Moisture  
Dew Point 10 °F    
Average Humidity 91    
Maximum Humidity 96    
Minimum Humidity 84    
Precipitation  
Precipitation 0.00 in - - ()
Sea Level Pressure  
Sea Level Pressure 30.25 in    
Wind  
Wind Speed 2 mph (WNW)    
Max Wind Speed 6 mph    
Max Gust Speed -    
Visibility 9 miles    
Events Snow    
Averages and records for this station are not official NWS values.
T = Trace of Precipitation, MM = Missing Value Source: NWS Daily Summary

Daily Weather History Graph

Daily Weather History Graph

Search for Another Location

Airport or City:

Trip Planner

Search our weather history database for the weather conditions in past years. The results will help you decide how hot, cold, wet, or windy it might be!

Date:

Astronomy

Oct. 28, 2012 Rise Set
Actual Time 10:03 AM AKDT 6:17 PM AKDT
Civil Twilight 9:10 AM AKDT 7:11 PM AKDT
Nautical Twilight 8:12 AM AKDT 8:09 PM AKDT
Astronomical Twilight 7:15 AM AKDT 9:05 PM AKDT
Moon 5:39 PM AKDT (10/28) 9:03 AM AKDT (10/28)
Length of Visible Light 10h 01m
Length of Day
8h 14m
Waxing Gibbous, 99% of the Moon is Illuminated
Oct 28
Waxing Gibbous
Oct 29
Full
Nov 6
Last Quarter
Nov 13
New
Nov 20
First Quarter

Hourly Weather History & Observations

Time (AKDT) Temp. Windchill Dew Point Humidity Pressure Visibility Wind Dir Wind Speed Gust Speed Precip Events Conditions
12:41 AM 10.4 °F - 8.6 °F 92% 30.23 in 10.0 mi Calm Calm - N/A   Scattered Clouds
12:58 AM 10.9 °F - 9.0 °F 92% 30.26 in 10.0 mi Calm Calm - N/A   Clear
1:58 AM 10.0 °F - 7.0 °F 87% 30.26 in 10.0 mi Calm Calm - N/A   Clear
2:58 AM 10.0 °F - 8.1 °F 92% 30.26 in 10.0 mi Calm Calm - N/A   Clear
3:58 AM 10.0 °F 1.8 °F 7.0 °F 87% 30.26 in 10.0 mi NW 4.6 mph - N/A   Partly Cloudy
4:11 AM 10.4 °F 4.0 °F 8.6 °F 92% 30.24 in 10.0 mi NW 3.5 mph - N/A   Mostly Cloudy
4:21 AM 10.4 °F 0.8 °F 8.6 °F 92% 30.23 in 10.0 mi NW 5.8 mph - N/A   Scattered Clouds
4:58 AM 10.0 °F 3.6 °F 7.0 °F 87% 30.26 in 10.0 mi NW 3.5 mph - N/A   Clear
5:58 AM 9.0 °F - 7.0 °F 92% 30.26 in 10.0 mi Calm Calm - N/A   Clear
6:58 AM 9.0 °F 0.6 °F 7.0 °F 92% 30.27 in 9.0 mi NW 4.6 mph - N/A   Clear
7:04 AM 8.6 °F 2.0 °F 6.8 °F 92% 30.24 in 9.0 mi WNW 3.5 mph - N/A   Partly Cloudy
7:58 AM 8.1 °F - 6.1 °F 92% 30.27 in 10.0 mi Calm Calm - N/A   Clear
8:31 AM 8.6 °F - 5.0 °F 85% 30.24 in 8.0 mi Calm Calm - N/A   Partly Cloudy
8:40 AM 8.6 °F 2.0 °F 5.0 °F 85% 30.24 in 8.0 mi NW 3.5 mph - N/A   Mostly Cloudy
8:58 AM 8.1 °F -0.5 °F 6.1 °F 92% 30.27 in 8.0 mi WNW 4.6 mph - 0.00 in Snow Light Snow
9:32 AM 8.6 °F 2.0 °F 6.8 °F 92% 30.25 in 10.0 mi WNW 3.5 mph - 0.00 in   Scattered Clouds
9:58 AM 8.1 °F 1.4 °F 6.1 °F 92% 30.27 in 4.0 mi West 3.5 mph - 0.00 in   Clear
10:26 AM 8.6 °F 2.0 °F 6.8 °F 92% 30.26 in 2.5 mi WNW 3.5 mph - N/A   Clear
10:32 AM 8.6 °F 2.0 °F 6.8 °F 92% 30.25 in 5.0 mi West 3.5 mph - N/A   Clear
10:58 AM 10.9 °F 2.9 °F 9.0 °F 92% 30.28 in 10.0 mi WNW 4.6 mph - N/A   Clear
11:09 AM 12.2 °F 4.3 °F 10.4 °F 92% 30.25 in 1.8 mi WNW 4.6 mph - N/A   Clear
11:19 AM 12.2 °F 4.3 °F 10.4 °F 92% 30.25 in 3.0 mi WNW 4.6 mph - N/A   Partly Cloudy
11:58 AM 15.1 °F - 12.9 °F 91% 30.28 in 10.0 mi Calm Calm - N/A   Partly Cloudy
12:58 PM 17.1 °F 11.7 °F 12.9 °F 84% 30.28 in 10.0 mi NNW 3.5 mph - 0.00 in   Clear
1:58 PM 19.0 °F - 16.0 °F 88% 30.27 in 10.0 mi Calm Calm - 0.00 in   Clear
2:58 PM 21.9 °F 17.2 °F 18.0 °F 85% 30.26 in 10.0 mi West 3.5 mph - 0.00 in   Clear
3:58 PM 21.9 °F 17.2 °F 19.9 °F 92% 30.25 in 10.0 mi WNW 3.5 mph - 0.00 in   Clear
4:58 PM 19.9 °F 12.1 °F 17.1 °F 89% 30.25 in 10.0 mi West 5.8 mph - 0.00 in   Clear
5:58 PM 18.0 °F 9.8 °F 16.0 °F 92% 30.24 in 10.0 mi West 5.8 mph - N/A   Clear
6:58 PM 15.1 °F 9.4 °F 12.9 °F 91% 30.22 in 10.0 mi WNW 3.5 mph - N/A   Clear
7:58 PM 16.0 °F 10.4 °F 15.1 °F 96% 30.21 in 10.0 mi WNW 3.5 mph - N/A   Mostly Cloudy
8:58 PM 17.1 °F 10.0 °F 15.1 °F 92% 30.19 in 10.0 mi North 4.6 mph - N/A   Clear
9:58 PM 16.0 °F 10.4 °F 14.0 °F 92% 30.18 in 10.0 mi North 3.5 mph - N/A   Clear
10:58 PM 12.9 °F - 10.9 °F 92% 30.17 in 10.0 mi Calm Calm - N/A   Clear